Погода в Чёрной

Россия / Ненецкий автономный округ     68°35′15″N   56°34′53″E
В апреле 2022 года жителям России запретили посещать сайт meteo.paraplan.net по решению Генеральной прокуратуры. Аудитория сайта уменьшилась в 10 раз. Владельцы сайта не видят смысла в поддержке погодного сервера в таких условиях. Сайт будет закрыт в октябре.
темп.,
°C
ветер,
м/с
пор.,
м/с
влажн.,
%
обл.,
%
осадки,
мм/ч
давл.,
гПа
погр.,
м
6 октября, чт
чт600:00+5ю3598100 0.0 1016119
03:00+5ю3698100 0.0 1015141
06:00+5ю4996100 0.1 1014248
09:00+6ю61194100 0.2 1013394
12:00+6ю5988100 0.1 1012489
15:00+5ю5890100 0.1 1010343
18:00+5ю5993100 0.0 1008323
21:00+5ююв5995100 0.1 1006309
7 октября, пт
пт700:00+5ю51093100 0.4 1004337
03:00+4ю61195100 0.4 1002353
06:00+4ююв6119545 0.0 999327
09:00+5ююв71287100 0.0 997445
12:00+6ююв7118995 0.0 996538
15:00+7ю6979100 0.0 995548
18:00+6ююв51187100 0.0 994441
21:00+6юв51090100 0.1 993455
8 октября, сб
сб800:00+6юв61093100 0.1 993425
03:00+5юв5995100 0.7 992390
06:00+5юв5897100 1.4 993348
09:00+5ююв4694100 2.1 994280
12:00+6ююв2490100 0.1 994361
15:00+5зюз1295100 0.6 99650
18:00+5з3597100 0.5 997190
21:00+6з5896100 0.6 998365
9 октября, вс
вс900:00+5зюз599475 0.0 999276
03:00+3юз479022 0.0 999127
06:00+3ю478799 0.0 997120
09:00+4ю61195100 2.2 995368
12:00+6ююз71395100 0.9 994522
15:00+7зюз71189100 1.4 994374
18:00+7юз6119172 0.2 994280
21:00+5юз6119385 0.2 994253
10 октября, пн
пн1000:00+4юз714915 0.0 994361
03:00+4юз81496100 0.1 993611
06:00+5юз101783100 0.6 992829
09:00+4юз121792100 0.9 9911043
12:00+6зюз121780100 0.1 9911205
15:00+6з10167154 0.3 993744
18:00+5з9158359 0.1 995627
21:00+5зсз91391100 0.4 996914